CDT,Max TemperatureF,Mean TemperatureF,Min TemperatureF,Max Dew PointF,MeanDew PointF,Min DewpointF,Max Humidity, Mean Humidity, Min Humidity, Max Sea Level PressureIn, Mean Sea Level PressureIn, Min Sea Level PressureIn, Max VisibilityMiles, Mean VisibilityMiles, Min VisibilityMiles, Max Wind SpeedMPH, Mean Wind SpeedMPH, Max Gust SpeedMPH,PrecipitationIn, CloudCover, Events, WindDirDegrees
2013-7-1,84,70,56,55,51,46,86,58,29,30.12,30.10,30.07,10,10,9,21,7,25,0.00,5,,24
2013-7-2,86,73,59,60,56,53,84,59,34,30.12,30.07,30.03,10,10,10,17,4,26,T,3,Thunderstorm,319
2013-7-3,82,71,59,61,58,54,84,62,39,30.05,30.01,29.97,10,10,9,13,6,19,0.00,4,,132
2013-7-4,86,74,62,60,59,56,84,60,35,30.03,29.98,29.94,10,10,10,17,9,23,0.00,1,,174
2013-7-5,90,77,63,61,59,56,73,56,38,29.97,29.93,29.89,10,10,10,23,11,27,0.00,1,,174
2013-7-6,92,81,69,66,63,59,70,54,38,29.94,29.89,29.84,10,10,10,21,11,25,0.00,0,,175
2013-7-7,93,82,71,71,66,62,79,59,39,29.90,29.87,29.84,10,10,9,23,11,30,T,4,Rain,192
2013-7-8,88,83,77,74,70,66,85,70,55,29.95,29.92,29.88,10,10,10,14,7,17,T,7,,210
2013-7-9,93,85,76,76,73,70,85,69,52,29.97,29.89,29.84,10,10,7,23,9,28,0.06,4,Rain-Thunderstorm,209
2013-7-10,86,77,68,71,59,51,74,53,32,30.04,29.99,29.90,10,10,10,21,8,27,0.00,1,,360
2013-7-11,86,75,63,58,57,55,84,61,37,30.10,30.06,30.00,10,10,7,15,7,20,0.00,0,,125
2013-7-12,88,77,65,61,59,57,78,59,39,30.07,30.02,29.98,10,10,10,22,13,29,0.00,1,,160
2013-7-13,82,75,67,64,59,53,73,64,54,30.05,30.02,30.00,10,10,10,17,11,23,T,6,,150
2013-7-14,88,78,67,64,62,60,76,58,40,30.16,30.09,30.06,10,10,10,18,9,22,0.00,2,,136
2013-7-15,91,81,70,71,67,62,79,63,47,30.22,30.17,30.13,10,10,9,17,8,23,0.00,2,,123
2013-7-16,94,84,74,71,70,68,87,67,47,30.24,30.21,30.18,10,10,10,14,7,18,0.00,1,,168
2013-7-17,96,86,75,71,69,66,82,61,39,30.28,30.23,30.16,10,10,10,15,5,19,0.00,1,,184
2013-7-18,96,86,76,71,68,64,82,59,35,30.17,30.05,29.92,10,10,10,22,11,27,0.00,0,,216
2013-7-19,96,87,77,72,66,60,67,49,30,29.91,29.86,29.80,10,10,10,20,11,25,0.01,3,Rain,266
2013-7-20,91,78,65,62,59,54,76,54,31,29.96,29.90,29.85,10,10,10,12,5,14,0.00,3,,127
2013-7-21,80,74,68,68,65,62,84,73,62,29.91,29.86,29.79,10,10,3,17,6,22,0.18,5,Rain-Thunderstorm,151
2013-7-22,95,82,68,72,67,61,90,67,43,29.91,29.79,29.70,10,9,1,33,9,43,0.41,4,Rain-Thunderstorm,199
2013-7-23,79,72,65,64,59,56,84,66,48,29.98,29.91,29.80,10,10,10,22,8,25,0.00,4,,27
2013-7-24,82,71,60,58,56,55,84,62,40,30.06,30.02,29.99,10,10,10,13,5,17,0.00,2,,61
2013-7-25,87,75,62,65,62,58,84,64,43,30.05,30.01,29.95,10,10,10,21,9,27,T,7,,207
2013-7-26,80,71,62,67,60,50,93,66,39,30.04,29.99,29.94,10,10,2,25,11,31,0.17,4,Rain,308
2013-7-27,73,65,56,53,47,42,83,59,35,30.09,30.03,29.99,10,10,10,22,9,30,0.00,2,,340
2013-7-28,78,65,51,53,47,46,83,58,32,30.06,30.02,29.99,10,10,10,18,9,26,0.00,1,,311
2013-7-29,75,66,57,60,55,51,80,65,49,30.12,30.09,30.06,10,10,7,15,8,19,T,6,Rain,135
2013-7-30,73,69,64,66,64,61,93,86,79,30.09,30.05,30.03,10,7,2,12,5,23,0.19,8,Rain,71
2013-7-31,86,76,65,65,63,61,93,69,44,30.13,30.07,30.00,10,6,0,13,5,16,0.00,6,Fog,342